"Time","Temp","Dewpoint","Humidity","Pressure","Direction","Speed","Gust","Precip","PrecipRate"
"00:04:58","54.4","49.8","84.6","29.97","139","0","0","0.00","0.00"
"00:09:56","54.1","49.7","85","29.97","139","0","0","0.00","0.00"
"00:14:57","53.9","49.5","85","29.97","139","0","0","0.00","0.00"
"00:19:59","53.7","49.4","85.3","29.96","139","0","0","0.00","0.00"
"00:24:58","53.5","49.3","85.7","29.96","139","0","0","0.00","0.00"
"00:29:58","53.2","49.1","86","29.96","139","0","0","0.00","0.00"
"00:34:58","53","49","86.6","29.95","139","0","0","0.00","0.00"
"00:39:58","52.7","48.9","87","29.95","139","0","0","0.00","0.00"
"00:44:58","52.4","48.9","87.9","29.95","139","0","0","0.00","0.00"
"00:49:58","52.1","48.7","88","29.95","139","0","0","0.00","0.00"
"00:54:57","51.8","48.4","88","29.95","139","0","0","0.00","0.00"
"00:59:57","51.6","48.5","88.8","29.95","139","0","0","0.00","0.00"
"01:04:55","51.4","48.3","89","29.95","139","0","0","0.00","0.00"
"01:09:58","51.2","48.1","89","29.95","139","0","0","0.00","0.00"
"01:14:59","51","48.1","89.6","29.95","139","0","0","0.00","0.00"
"01:19:59","50.8","48","90","29.95","139","0","0","0.00","0.00"
"01:24:59","50.7","47.9","90","29.95","139","0","0","0.00","0.00"
"01:29:59","50.5","47.7","90","29.95","139","0","0","0.00","0.00"
"01:34:59","50.4","47.8","90.7","29.94","139","0","0","0.00","0.00"
"01:39:56","50.3","47.8","91","29.94","139","0","0","0.00","0.00"
"01:44:59","50.2","47.7","91","29.94","139","0","0","0.00","0.00"
"01:49:59","50.2","47.9","91.4","29.94","139","0","0","0.00","0.00"
"01:54:59","50.4","48.2","92","29.94","139","0","0","0.00","0.00"
"01:59:59","50.5","48.3","92","29.94","139","0","0","0.00","0.00"
"02:04:58","50.7","48.5","92","29.93","139","0","0","0.00","0.00"
"02:09:57","50.8","48.6","92","29.93","139","0","0","0.00","0.00"
"02:14:57","51","48.6","91.5","29.93","139","0","0","0.00","0.00"
"02:19:57","51","48.5","91","29.92","139","0","0","0.00","0.00"
"02:24:56","51.1","48.4","90.6","29.92","139","0","0","0.00","0.00"
"02:29:56","51.2","48.4","90","29.92","139","0","0","0.00","0.00"
"02:34:56","51.2","48.4","90","29.92","139","0","0","0.00","0.00"
"02:39:56","51.3","48.8","91","29.92","139","0","0","0.00","0.00"
"02:44:56","51.4","48.6","90","29.92","139","0","0","0.00","0.00"
"02:49:56","51.4","48.6","90","29.91","139","0","0","0.00","0.00"
"02:54:59","51.5","48.7","90","29.91","139","0","0","0.00","0.00"
"02:59:59","51.5","48.7","90","29.91","139","0","0","0.00","0.00"
"03:04:56","51.6","48.8","90","29.91","139","0","0","0.00","0.00"
"03:09:58","51.7","48.8","89.5","29.91","139","0","0","0.00","0.00"
"03:14:59","51.8","48.8","89.3","29.91","139","0","0","0.00","0.00"
"03:19:59","51.9","49.1","90","29.90","139","0.3","2.4","0.00","0.00"
"03:24:58","51.9","49.1","90","29.90","139","0.1","1.2","0.00","0.00"
"03:29:57","52","49.2","89.9","29.90","139","0","0","0.00","0.00"
"03:34:57","52","48.9","89","29.89","139","0","1.2","0.00","0.00"
"03:39:58","52.3","49.2","89","29.89","139","0.3","1.2","0.00","0.00"
"03:44:57","52.4","49.3","89","29.89","139","0.1","1.2","0.00","0.00"
"03:49:56","52.5","49.4","89","29.88","139","0.6","2.4","0.00","0.00"
"03:54:56","52.7","49.3","88.4","29.88","139","0.7","2.4","0.00","0.00"
"03:59:57","52.8","49.3","88","29.88","139","0","0","0.00","0.00"
"04:04:57","52.9","49.4","88","29.88","139","0","0","0.00","0.00"
"04:09:56","53","49.5","88","29.88","139","0","0","0.00","0.00"
"04:14:58","53.1","49.9","89","29.88","139","0.2","1.2","0.00","0.00"
"04:19:57","53.2","49.7","88.1","29.87","139","0.4","2.4","0.00","0.00"
"04:24:59","53.2","49.7","88","29.87","139","0","0","0.00","0.00"
"04:29:59","53.2","49.7","88","29.87","139","0","0","0.00","0.00"
"04:34:57","53.2","50","89","29.87","139","0","0","0.00","0.00"
"04:39:57","53.3","50","88.7","29.87","139","0","0","0.00","0.00"
"04:44:59","53.3","49.9","88.4","29.87","139","0.1","1.2","0.00","0.00"
"04:49:58","53.4","50.2","89","29.86","139","0.3","1.2","0.00","0.00"
"04:54:57","53.5","50.3","89","29.86","139","0","0","0.00","0.00"
"04:59:56","53.6","50.4","89","29.86","139","0","0","0.00","0.00"
"05:04:59","53.6","50.4","89","29.85","139","0","0","0.00","0.00"
"05:09:58","53.7","50.3","88.4","29.85","139","0","1.2","0.00","0.00"
"05:14:57","53.7","50.3","88.2","29.86","139","0","0","0.00","0.00"
"05:19:56","53.7","50.5","89","29.86","139","0","0","0.00","0.00"
"05:24:59","53.7","50.5","89","29.86","139","0","0","0.00","0.00"
"05:29:58","53.7","50.3","88.1","29.86","139","0","1.2","0.00","0.00"
"05:34:57","53.8","50.6","89","29.86","139","0","0","0.00","0.00"
"05:39:56","53.9","50.7","89","29.86","139","0","0","0.00","0.00"
"05:44:57","53.9","50.9","89.8","29.86","139","0","0","0.00","0.00"
"05:49:58","53.9","51","90","29.86","139","0","0","0.00","0.00"
"05:54:57","53.9","51","90","29.86","139","0.1","2.4","0.00","0.00"
"05:59:56","53.9","51","90","29.86","139","0.2","2.3","0.00","0.00"
"06:04:59","54","51.1","90","29.86","139","0","1.2","0.00","0.00"
"06:09:59","54","51.1","90","29.86","139","0.3","1.2","0.01","0.01"
"06:14:58","54","51.2","90.6","29.86","139","0.4","2.4","0.02","0.01"
"06:19:57","53.9","51.3","91","29.84","139","0","1.2","0.02","0.02"
"06:24:59","53.9","51.3","91.2","29.84","139","0","0","0.04","0.03"
"06:29:58","53.8","51.5","92","29.84","139","0","0","0.04","0.04"
"06:34:59","53.7","51.4","92","29.84","139","0","0","0.04","0.04"
"06:39:59","53.6","51.3","92","29.84","139","0","0","0.04","0.04"
"06:44:58","53.6","51.5","92.7","29.84","139","0","0","0.04","0.04"
"06:49:57","53.5","51.5","93","29.84","139","0","0","0.04","0.04"
"06:54:59","53.5","51.5","93","29.84","139","0","0","0.04","0.04"
"06:59:58","53.5","51.5","93","29.84","139","0","0","0.04","0.04"
"07:04:57","53.5","51.5","93","29.84","139","0","0","0.04","0.04"
"07:09:56","53.6","51.7","93.5","29.84","139","0","0","0.04","0.04"
"07:14:56","53.6","51.9","94","29.84","139","0","0","0.04","0.03"
"07:19:59","53.6","51.9","94","29.83","139","0","0","0.04","0.02"
"07:24:58","53.6","51.9","94","29.83","139","0","0","0.04","0.02"
"07:29:56","53.6","51.9","94","29.84","139","0","0","0.04","0.00"
"07:34:59","53.6","51.9","94","29.84","139","0","0","0.04","0.00"
"07:39:59","53.6","51.9","94","29.84","139","0","1.2","0.04","0.00"
"07:40:54","53.6","51.9","94","29.84","139","0.3","1.2","0.04","0.00"
"07:59:59","53.7","52","94","29.84","139","0","0","0.06","0.02"
"08:04:59","53.7","52","94","29.83","139","0","0","0.07","0.03"
"08:09:58","53.7","52.1","94.5","29.83","139","0","0","0.07","0.03"
"08:14:59","53.7","52.3","95","29.83","139","0","0","0.08","0.04"
"08:19:56","53.7","52.3","95","29.82","139","0","0","0.08","0.04"
"08:24:56","53.7","52.3","95","29.82","139","0","0","0.08","0.04"
"08:29:56","53.8","52.4","95","29.82","139","0","0","0.08","0.04"
"08:34:56","53.9","52.5","95","29.82","139","0","0","0.08","0.04"
"08:39:58","54","52.6","95","29.82","139","0","0","0.08","0.04"
"08:44:57","54.1","52.7","95","29.82","139","0","0","0.08","0.04"
"08:49:57","54.2","52.8","95","29.82","139","0","0","0.09","0.05"
"08:54:57","54.3","52.9","95","29.82","139","0","0","0.09","0.04"
"08:59:57","54.4","53","95","29.82","139","0","0","0.09","0.04"
"09:04:58","54.5","53.1","95","29.81","139","0","0","0.09","0.03"
"09:09:58","54.6","53.2","95","29.81","139","0","1.2","0.09","0.02"
"09:14:56","54.6","53.2","95","29.81","139","0","0","0.10","0.02"
"09:19:56","54.7","53.3","95","29.80","139","0","0","0.10","0.02"
"09:24:59","54.8","53.4","95","29.80","139","0.2","1.2","0.10","0.02"
"09:29:56","55","53.6","95","29.80","139","0.1","1.2","0.10","0.02"
"09:34:56","55.1","53.7","95","29.80","139","0","1.2","0.10","0.02"
"09:39:57","55.2","54.1","95.8","29.80","139","0","0","0.10","0.02"
"09:44:57","55.4","54.3","96","29.80","139","0","0","0.10","0.02"
"09:49:57","55.5","54.4","95.9","29.80","139","0","0","0.10","0.02"
"09:54:56","55.7","54.5","95.7","29.80","139","0.4","3.6","0.10","0.01"
"09:59:56","55.8","54.5","95.4","29.80","139","0.9","2.4","0.10","0.01"
"10:04:57","56","54.9","96","29.78","139","0.5","3.6","0.10","0.01"
"10:09:57","56.2","54.9","95.3","29.78","139","0.6","2.4","0.10","0.01"
"10:14:57","56.5","55.2","95.3","29.78","139","0.4","2.3","0.10","0.01"
"10:19:58","56.9","55.8","96","29.77","139","0.6","2.4","0.10","0.00"
"10:24:58","57.1","55.8","95.5","29.77","139","0.6","2.4","0.10","0.00"
"10:29:58","57.2","55.8","95.1","29.78","141","1.5","4.8","0.10","0.00"
"10:34:58","57.3","55.9","95","29.78","165","2.1","4.8","0.10","0.00"
"10:39:59","57.3","55.9","95","29.78","151","1.9","4.8","0.10","0.00"
"10:44:58","57.3","55.9","95","29.78","152","2.1","8.4","0.10","0.00"
"10:49:58","57.3","55.6","94","29.77","178","1.9","8.1","0.10","0.00"
"10:54:58","57.4","55.8","94.4","29.77","159","1.5","4.8","0.10","0.00"
"10:59:58","57.4","55.7","94","29.77","157","1.5","4.8","0.10","0.00"
"11:04:58","57.6","56.1","94.9","29.75","142","2.1","6","0.10","0.00"
"11:09:58","57.8","56.1","94","29.75","160","2.6","5.8","0.10","0.00"
"11:14:58","58.2","56.5","94","29.75","170","2.8","7.2","0.10","0.00"
"11:19:58","58.6","56.8","93.7","29.75","167","1.9","6","0.10","0.00"
"11:24:58","59.1","57","92.7","29.75","166","2.8","8.4","0.10","0.00"
"11:29:58","59.6","57.3","91.9","29.75","160","3.5","7.2","0.10","0.00"
"11:34:58","59.8","57","90.4","29.73","199","5.6","17.3","0.10","0.00"
"11:39:58","59.7","56.6","89.3","29.73","194","4.9","12","0.10","0.00"
"11:44:56","59.6","56.4","89","29.73","172","4.1","12","0.10","0.00"
"11:49:58","59.4","56.4","89.7","29.73","177","3.2","11.5","0.10","0.00"
"11:54:58","59.3","56.4","90","29.73","184","4","12","0.10","0.00"
"11:59:58","59.3","56.6","90.5","29.73","163","1.8","6","0.10","0.00"
"12:04:58","59.4","56.7","90.6","29.72","187","3.4","8.4","0.10","0.00"
"12:09:57","59.4","56.5","90.2","29.72","165","4.5","12","0.10","0.00"
"12:14:59","59.3","56.6","90.7","29.72","175","2.9","11.5","0.10","0.00"
"12:19:59","59.3","56.7","91","29.71","170","3","8.1","0.10","0.00"
"12:24:58","59.3","56.7","91","29.71","199","2.6","6","0.10","0.00"
"12:29:58","59.3","56.7","91","29.71","182","2.4","6","0.10","0.00"
"12:34:58","59.3","56.7","91","29.71","161","3","10.8","0.10","0.00"
"12:39:59","59.3","56.8","91.2","29.71","186","4.7","15","0.10","0.00"
"12:44:58","59.3","56.7","91.1","29.71","178","3.9","10.8","0.10","0.00"
"12:49:58","59.3","56.9","91.8","29.69","186","4","10.8","0.10","0.00"
"12:54:57","59.2","56.9","91.8","29.69","199","5.3","12","0.10","0.00"
"12:59:57","59.1","56.8","92","29.69","184","4.4","12","0.10","0.00"
"13:04:58","59.1","56.8","92","29.69","182","2.3","4.8","0.10","0.00"
"13:09:57","59.1","56.8","92","29.69","165","4.4","9.6","0.10","0.00"
"13:14:58","59.1","56.8","92","29.69","165","4.8","10.8","0.10","0.00"
"13:19:58","59.1","56.8","92","29.67","165","3.4","8.4","0.10","0.00"
"13:24:58","59.1","56.9","92.2","29.67","153","3","7.2","0.10","0.00"
"13:29:58","59.1","57","92.5","29.67","161","3","6","0.10","0.00"
"13:34:58","59.1","57","92.5","29.66","152","3.9","8.4","0.10","0.00"
"13:39:56","59.1","56.8","92.1","29.66","189","2.9","8.4","0.10","0.00"
"13:44:56","59.1","57.1","93","29.66","199","2.1","6","0.10","0.00"
"13:49:56","59.2","57.2","93","29.65","191","1.5","4.8","0.10","0.00"
"13:54:58","59.3","56.9","91.9","29.65","151","3","8.4","0.10","0.00"
"13:59:58","59.3","56.9","91.6","29.65","185","2.4","7.2","0.10","0.00"
"14:04:59","59.3","56.7","91.1","29.63","170","3.7","7.2","0.10","0.00"
"14:09:59","59.3","56.7","91","29.63","152","2.9","7.2","0.10","0.00"
"14:14:56","59.3","56.7","91","29.63","156","3.3","7.2","0.10","0.00"
"14:19:57","59.4","56.8","91","29.63","155","3.2","7.2","0.10","0.00"
"14:24:57","59.4","56.8","91","29.63","160","2.2","7.2","0.10","0.00"
"14:29:58","59.6","57","91.2","29.63","178","3.2","7.2","0.10","0.00"
"14:34:58","59.6","57","91","29.62","188","3.5","10.8","0.10","0.00"
"14:39:56","59.6","56.9","90.6","29.62","166","3.9","10.4","0.10","0.00"
"14:44:56","59.5","56.8","90.6","29.62","172","3.7","8.4","0.10","0.00"
"14:49:56","59.5","56.9","91","29.61","174","3","7.2","0.10","0.00"
"14:54:57","59.5","56.9","91","29.61","183","3.2","8.4","0.10","0.00"
"14:59:57","59.5","56.9","91","29.61","160","1.4","4.8","0.10","0.00"
"15:04:58","59.5","56.9","91","29.61","186","2.7","6","0.10","0.00"
"15:09:57","59.5","56.9","91","29.61","160","1.8","6","0.10","0.00"
"15:14:59","59.5","56.9","91","29.61","170","2.3","7.2","0.10","0.00"
"15:19:56","59.6","57","91","29.60","169","2","6","0.10","0.00"
"15:24:56","59.6","57","91","29.60","147","1.9","4.8","0.10","0.00"
"15:29:57","59.7","57.1","91","29.60","149","2.1","4.8","0.10","0.00"
"15:34:58","59.8","57.2","91","29.59","169","0.5","3.6","0.10","0.00"
"15:39:56","59.8","57.2","91","29.59","163","1","4.8","0.10","0.00"
"15:44:57","59.8","56.9","90.1","29.59","151","2.9","6","0.10","0.00"
"15:49:58","59.8","56.9","90.2","29.58","173","1.4","4.6","0.10","0.00"
"15:54:59","59.8","57.2","91","29.58","172","1.7","4.8","0.10","0.00"
"15:59:59","59.8","57","90.3","29.58","172","1.8","4.8","0.10","0.00"
"16:04:56","59.8","57","90.2","29.58","174","1.8","4.8","0.10","0.00"
"16:09:56","59.8","57","90.2","29.58","173","2.1","4.8","0.10","0.00"
"16:14:58","59.8","57","90.3","29.58","143","1.8","4.8","0.10","0.00"
"16:19:56","59.8","57.1","90.5","29.57","141","0.3","2.3","0.10","0.00"
"16:24:56","59.9","57.3","91","29.57","141","0.6","3.6","0.10","0.00"
"16:29:58","59.9","57.3","91","29.57","141","0.6","2.4","0.10","0.00"
"16:34:58","59.9","57.3","91","29.57","141","0.2","2.4","0.10","0.00"
"16:39:56","59.9","57.3","91","29.57","137","2.1","4.8","0.10","0.00"
"16:44:57","59.9","57.3","91","29.57","133","1.3","3.6","0.10","0.00"
"16:49:58","60","57.2","90.5","29.56","139","2","4.8","0.10","0.00"
"16:54:59","60","57.4","91","29.56","141","1","3.6","0.10","0.00"
"16:59:56","60","57.4","91","29.56","142","0.9","3.6","0.10","0.00"
"17:04:56","60.1","57.3","90.5","29.55","179","1.4","4.8","0.10","0.00"
"17:09:57","60.1","57.4","90.8","29.55","190","0.8","2.4","0.10","0.00"
"17:14:58","60.1","57.3","90.2","29.55","183","1.5","3.6","0.10","0.00"
"17:19:59","60.1","57.2","90","29.55","168","0.7","3.6","0.10","0.00"
"17:24:57","60.1","57.3","90.2","29.55","168","0.1","1.2","0.10","0.00"
"17:29:58","60.1","57.2","90","29.55","168","0.1","1.2","0.10","0.00"
"17:34:56","60.1","57.2","90","29.55","168","0","0","0.10","0.00"
"17:39:58","60.1","57.2","90","29.55","219","0.1","1.2","0.10","0.00"
"17:44:59","60.2","57.4","90.4","29.55","246","0","0","0.10","0.00"
"17:49:56","60.2","57.6","91","29.55","246","0","0","0.10","0.00"
"17:54:59","60.2","57.6","91","29.55","246","0","1.2","0.10","0.00"
"17:59:57","60.1","57.5","91","29.55","246","0","0","0.10","0.00"
"18:04:58","60.1","57.5","91","29.54","246","0.1","1.2","0.10","0.00"
"18:09:58","60","57.4","91","29.54","246","0.5","2.4","0.10","0.00"
"18:14:56","60","57.4","91","29.54","246","0.4","2.4","0.10","0.00"
"18:19:57","59.9","57.3","91","29.53","246","0.1","1.2","0.10","0.00"
"18:24:59","59.8","57.2","91","29.53","237","0.4","3.6","0.10","0.00"
"18:29:57","59.8","57.2","91","29.53","232","0.2","2.4","0.10","0.00"
"18:34:59","59.7","57.1","91","29.53","232","0.1","1.2","0.10","0.00"
"18:39:59","59.6","57","91","29.53","282","0.8","4.8","0.10","0.00"
"18:44:56","59.4","56.5","90.2","29.53","334","1.2","4.8","0.10","0.00"
"18:49:58","58.8","55.8","89.7","29.53","353","3.2","10.8","0.10","0.00"
"18:54:56","57.9","54.8","89.3","29.53","351","2.5","6","0.10","0.00"
"18:59:58","57.2","54.3","90","29.53","356","3.1","7.2","0.10","0.00"
"19:04:59","56.5","53.9","90.9","29.53","1","2.2","6","0.10","0.00"
"19:09:59","55.9","53.3","91","29.53","352","2.9","8.4","0.10","0.00"
"19:14:58","55.4","53.1","91.9","29.54","350","2.7","9.6","0.10","0.00"
"19:19:56","55","52.7","92","29.54","353","2.5","6","0.10","0.00"
"19:24:57","54.6","52.6","92.8","29.54","3","2.4","7.2","0.10","0.00"
"19:29:59","54.3","52.3","93","29.54","2","2","4.8","0.10","0.00"
"19:34:58","54.1","52.2","93.4","29.54","5","1.6","3.6","0.10","0.00"
"19:39:57","53.9","52.2","94","29.54","355","2.3","6","0.10","0.00"
"19:44:58","53.7","52","94","29.54","335","2.6","7.2","0.12","0.02"
"19:49:59","53.6","51.9","94","29.54","257","1.5","4.8","0.13","0.03"
"19:54:56","53.4","51.7","94","29.54","349","2.4","6","0.15","0.05"
"19:59:59","53.3","51.9","95","29.56","336","2.6","6","0.17","0.07"
"20:04:56","53.2","51.8","95","29.56","327","3.5","13.2","0.20","0.09"
"20:09:56","53.1","51.7","95","29.56","341","3.2","8.4","0.22","0.12"
"20:14:58","53.1","51.7","95","29.56","331","3.7","12","0.24","0.14"
"20:19:56","53.2","51.8","95","29.55","342","3.8","12","0.25","0.15"
"20:24:57","53.2","51.8","95","29.55","353","2.6","10.8","0.26","0.16"
"20:29:59","53.2","51.8","95","29.55","355","1.1","4.8","0.26","0.16"
"20:34:57","53.2","51.8","95","29.55","358","2.3","9.6","0.28","0.17"
"20:39:56","53.2","51.8","95","29.55","355","1.7","4.8","0.29","0.18"
"20:44:57","53.2","51.8","95","29.55","334","2.2","6","0.30","0.19"
"20:49:59","53.2","51.8","95","29.55","330","2.2","6","0.30","0.18"
"20:54:56","53.2","51.8","95","29.55","309","2","6","0.30","0.17"
"20:59:58","53.1","51.7","95","29.55","307","0.8","3.6","0.31","0.16"
"21:04:59","53.1","51.7","95","29.55","307","0.8","3.6","0.31","0.14"
"21:09:59","53","51.7","95.3","29.55","308","1.4","3.6","0.31","0.11"
"21:14:58","53","51.7","95.5","29.55","308","0.2","2.3","0.31","0.09"
"21:19:57","53","51.8","95.8","29.55","308","0.5","2.4","0.31","0.07"
"21:24:59","53","51.9","96","29.55","330","2.4","6","0.31","0.06"
"21:29:58","52.9","51.8","96","29.55","346","2.5","4.8","0.31","0.05"
"21:34:59","52.9","51.6","95.3","29.55","351","2.6","7.2","0.31","0.05"
"21:39:59","52.8","51.5","95.5","29.55","3","1.8","7.2","0.31","0.03"
"21:44:56","52.8","51.7","96","29.55","344","2.6","6.9","0.31","0.02"
"21:49:59","52.7","51.6","96","29.55","346","0.8","3.6","0.32","0.02"
"21:54:56","52.7","51.6","96","29.55","343","2.6","10.8","0.32","0.02"
"21:59:58","52.6","51.3","95.2","29.56","341","2.8","9.2","0.32","0.01"
"22:04:59","52.6","51.2","95","29.56","352","1.8","6","0.32","0.01"
"22:09:59","52.5","51.1","95","29.56","341","2.1","6","0.32","0.01"
"22:14:57","52.3","50.9","95","29.56","356","2.9","8.4","0.32","0.01"
"22:19:59","52.1","50.7","95","29.56","348","3","10.8","0.32","0.01"
"22:24:57","52","50.6","95","29.56","356","2.7","10.4","0.32","0.01"
"22:29:59","51.8","50.4","95","29.56","343","3.7","14.4","0.32","0.01"
"22:34:57","51.7","50","94","29.56","340","4","15","0.32","0.01"
"22:39:56","51.5","49.8","94","29.56","343","3","12","0.32","0.01"
"22:44:57","51.5","49.8","94","29.57","346","4.3","15.6","0.32","0.01"
"22:49:59","51.4","49.7","94","29.57","349","2.4","12","0.32","0.01"
"22:54:57","51.4","49.7","94","29.57","344","2.3","8.4","0.32","0.00"
"22:59:59","51.3","49.6","94","29.57","351","2.9","7.2","0.32","0.00"
"23:04:56","51.2","49.5","94","29.55","338","3.1","13.2","0.32","0.00"
"23:09:56","51.2","49.5","94","29.55","352","3","10.8","0.32","0.00"
"23:14:59","51.1","49.4","94","29.55","345","3.1","9.6","0.32","0.00"
"23:19:56","51","49.3","94","29.55","359","3.3","10.8","0.33","0.01"
"23:24:58","50.9","49.2","94","29.55","348","2.8","12","0.34","0.02"
"23:29:59","50.8","49.1","94","29.55","5","3.4","10.4","0.34","0.02"
"23:34:57","50.6","48.9","94","29.55","2","2.5","10.8","0.34","0.02"
"23:39:56","50.6","48.9","94","29.55","345","3.1","12","0.34","0.02"
"23:44:57","50.5","48.8","94","29.55","350","3.2","10.8","0.35","0.03"
